Home > Weather > Porto > Past weeks

Flag for Portugal Weather for the Past 2 Weeks in Porto, Portugal

Now
50 °F

Partly cloudy.


Feels Like: 46 °F
Forecast: 49 / 56 °F
Wind: 10 mph from South

Location: Porto / Pedras Rubras

Current Time: Feb 6, 2016 at 7:22:35 AM

Latest Report: Feb 6, 2016 at 6:30 AM


Visibility: N/A

Pressure: 30.09 "Hg

Humidity: 82%

Dew point: 45 °F

Location of PortoLocation

Historic Weather in Porto — Graph

°F

Porto Temperature Yesterday

Maximum temperature yesterday: 64 °F (at 2:30 PM)
Minimum temperature yesterday: 43 °F (at 3:00 AM)
Average temperature yesterday: 51 °F

High & Low Weather Summary for the Past Weeks

 TemperatureHumidityPressure
High72 °F (Jan 24, 1:30 PM)100% (Jan 22, 6:00 AM)30.66 "Hg (Jan 22, 6:00 AM)
Low39 °F (Jan 30, 4:00 AM)34% (Feb 4, 4:30 PM)30.09 "Hg (Feb 6, 5:30 AM)
Average54 °F83%30.44 "Hg
* Reported Jan 22 6:00 AM — Feb 6 6:00 AM, Porto, Weather by CustomWeather, © 2016

Note: Actual official high and low records may vary slightly from our data, if they occured in-between our weather recording intervals... More about our weather records

Advertising

Porto Weather History for the Previous 24 Hours

 ConditionsComfort  
Time TempWeatherWind HumidityBarometerVisibility
6:00 AM
Sat, Feb 6
50 °FPartly cloudy.8 mph82%30.09 "HgN/A
5:30 AM48 °FPartly cloudy.9 mph87%30.09 "HgN/A
5:00 AM46 °FPartly cloudy.9 mph93%30.12 "HgN/A
4:00 AM48 °FPassing clouds.8 mph82%30.12 "HgN/A
3:30 AM48 °FPartly cloudy.9 mph82%30.12 "HgN/A
3:00 AM48 °FPassing clouds.10 mph82%30.15 "HgN/A
2:30 AM46 °FPassing clouds.7 mph87%30.15 "HgN/A
2:00 AM46 °FPassing clouds.8 mph87%30.18 "HgN/A
1:30 AM46 °FPassing clouds.8 mph87%30.18 "HgN/A
12:30 AM46 °FClear.8 mph87%30.18 "Hg10 mi
12:00 AM46 °FClear.9 mph82%30.21 "Hg10 mi
11:30 PM
Fri, Feb 5
46 °FClear.9 mph82%30.21 "Hg10 mi
11:00 PM48 °FPassing clouds.6 mph76%30.21 "HgN/A
10:30 PM48 °FClear.5 mph76%30.21 "Hg10 mi
10:00 PM50 °FPassing clouds.7 mph71%30.21 "HgN/A
9:30 PM45 °FClear.No wind87%30.21 "Hg10 mi
9:00 PM46 °FClear.No wind76%30.21 "Hg10 mi
8:30 PM46 °FPassing clouds.3 mph82%30.21 "HgN/A
8:00 PM48 °FClear.No wind76%30.21 "Hg10 mi
7:30 PM48 °FClear.2 mph76%30.21 "Hg10 mi
7:00 PM50 °FClear.2 mph71%30.21 "Hg10 mi
6:30 PM52 °FClear.1 mph67%30.21 "Hg10 mi
6:00 PM55 °FClear.No wind59%30.21 "Hg10 mi
5:30 PM59 °FSunny.No wind51%30.21 "Hg10 mi
5:00 PM59 °FSunny.1 mph45%30.21 "Hg10 mi
4:30 PM61 °FSunny.3 mph52%30.24 "Hg10 mi
4:00 PM63 °FSunny.3 mph52%30.24 "Hg10 mi
3:30 PM63 °FSunny.3 mph45%30.24 "Hg10 mi
3:00 PM63 °FPassing clouds.3 mph52%30.24 "HgN/A
2:30 PM64 °FSunny.2 mph43%30.24 "Hg10 mi
2:00 PM61 °FPassing clouds.6 mph52%30.27 "HgN/A
1:30 PM63 °FSunny.3 mph39%30.27 "Hg10 mi
1:00 PM63 °FSunny.5 mph42%30.27 "Hg10 mi
12:30 PM61 °FSunny.7 mph45%30.30 "Hg10 mi
12:00 PM59 °FSunny.9 mph48%30.30 "Hg10 mi
11:30 AM59 °FSunny.12 mph51%30.33 "Hg10 mi
11:00 AM55 °FSunny.12 mph55%30.33 "Hg10 mi
10:30 AM55 °FSunny.12 mph59%30.33 "Hg10 mi
10:00 AM52 °FSunny.13 mph62%30.30 "Hg10 mi
9:30 AM52 °FSunny.12 mph58%30.30 "Hg10 mi
9:00 AM50 °FSunny.13 mph62%30.30 "Hg10 mi
8:30 AM46 °FSunny.12 mph71%30.30 "Hg10 mi
8:00 AM46 °FSunny.12 mph66%30.30 "Hg10 mi
7:30 AM46 °FClear.12 mph66%30.30 "Hg10 mi
7:00 AM46 °FClear.10 mph71%30.30 "Hg10 mi
Weather by CustomWeather, © 2016

See weather overviewHow to use our weather pages